STARLINK-11616, 63137

Orbit data source: Space-Track

STARLINK-11616, 63137 is a payload satellite owned by SpaceX/Seattle (US) in LEO that was launched on Mon, 03 Mar 2025 UTC via an FALCON 9 launch vehicle from the Air Force Eastern Test Range (AFETR). Payload-class satellites include a variety of spacecraft equipped with specific instruments for various scientific and technological missions. These include communications satellites like Starlink; space stations such as the ISS; scientific satellites like the Hubble; Earth observation satellites from companies like Planet Labs, Umbra, and HawkEye 360; GPS; miniature CubeSats for education and research; and military/defense satellites.

Loading next visibility...
Identifier
63137, 2025-043F
Orbit
LEO
Last TLE update
22 hours ago
Origin
Manufacturer
SpaceX/Seattle
Mission
Operational Commercial Communications
Bus & Motor
STARLINK V2M, Unknown motor
Mass
730 kg wet, ~700 kg dry
Launch date (UTC)
2025-03-03 (4 months ago)
Launch vehicle
FALCON 9
Launch site
Air Force Eastern Test Range (AFETR)
Object type
Payload
Rocket body
Debris
Shape & HBR
Box + 2 Pan, 29 m
Radar Cross Section
36.964 m², Large (>1 m²)

Expand to show TLE details & history

TLE from 22 hours ago
0 STARLINK-11616
1 63137U 25043F   25169.36090170  .00201173  00000-0  15262-2 0  9995
2 63137  42.9999  43.6846 0001505 319.1658  40.9097 15.70955880 17903
Epoch: 2025-06-18T08:39Z
TLE epoch observation values (Epoch: 2025-06-18T08:39:41.906Z)
Latitude
-0.00002°
Longitude
6.91592°
Altitude
355.169 km
Speed
7.698 km/s
True Right ascension
02h 54m 44s
True Declination
0° 00' 00"
Sunlit
Object was in daylight at epoch
Visualization orbit readout
Latitude
24.86987°
Longitude
31.1297°
Altitude
354.712 km
Speed
7.701 km/s
Apparent Right ascension
04h 44m 49s
Apparent Declination
-6° 31' 10"
Sunlit
Object is in daylight
Visualization observer readout
Local Sidereal Time
17:01:20
Azimuth
7.427° NNE
Elevation
-56.398°
Doppler factor
1
Orbital elements
Apogee altitude
359.159 km
Perigee altitude
357.132 km
Semi-major axis
6,736.283 km
Eccentricity
0.00015
Inclination
42.9999°
RAAN
43.6846°
Arg. of periapsis
319.1658°
True anomaly
Unknown
Mean anomaly
40.9097°
Eccentric anomaly
Unknown
Mean motion
3.92566 °/min
Orbital period
91.7 mins
BSTAR
0.0015262
Loading maneuver chart data...
Loading SW <> Apogee altitude chart data...
Loading historical data...
Loading historical data...
Loading historical data...
Loading historical data...
Loading historical data...
Loading historical data...
Loading historical data...

STARLINK-11616 Visibility forecast

Observer location: undefined°, undefined°

Span
Click to sort rows by Start time (UTC) header in descending order
Start Az.
Max El. time (UTC)
Max El. Az.
Max El.
End time (UTC)
End Az.
4 mins2025-06-19 18:25:54.299Z203.423° SW2025-06-19 18:27:54.299Z152.232° SSE23.39°2025-06-19 18:29:54.299Z97.609° ESE
4 mins2025-06-19 21:38:54.299Z306.008° NW2025-06-19 21:39:54.299Z346.197° N33.902°2025-06-19 21:42:54.299Z76.816° E
4 mins2025-06-19 23:14:54.299Z284.764° WNW2025-06-19 23:15:54.299Z274.076° WNW40.941°2025-06-19 23:18:54.299Z113.051° SE
|